ONEWEB-0041 (45148 NORAD) Tracking and Keplerian Element Data

This shows tracking and keplerian element data for the satellite.

Feedback or suggestion? Click here.




ElementValue
Catalog45148
NameONEWEB-0041
Epoch Orbit3888
Epoch Day297.90057173
Epoch Year2020
RAAN81.6722
Inclination87.5269
Eccentricity0.0019555
Argument of Perigee85.5158
Mean Anonmoly274.8302
Mean Motion14.88518854
Decay Rate3.67E-06
L11 45148U 20008T 20297.90057173 .00000367 00000-0 36441-4 0 9992
L22 45148 87.5269 81.6722 0019555 85.5158 274.8302 14.88518854 38889

Live tracking and technical data element details for ONEWEB-0041 (NORAD 45148). ONEWEB-0041 can be tracked NOW for your location showing map with azimuth and elevation plus other details from your city location.

Track the satellite on the map from your city or location and see movement details for azimuth, elevation, latitude, longitude, range, height, and movement on the map or in text.







IsCatalogInMostPopularTable: catalog: 45148, numindb: 57
Update: records affected: 1



GetName: 45148 ONEWEB-0041

Hit Count: updated at: Sat, 24 Oct 2020 23:47:05 GMT